Météo

Actualisé à 20h00, Lille

icon

T : 16 °C / H : 94 %
Pression : 1013 Hpa
Vent de nord : 13 Km/h
Faible Pluie
Nuages fragmentés à 1000 pieds
Nuages fragmentés à 2900 pieds

2024/06/18 19:00 LFQQ 181900Z AUTO 01007KT 6000 -RA BKN010/// BKN029/// BKN043/// ///TCU 16/15 Q1013 TEMPO 3000 SHRA BKN005 BKN013CB

Mots clés

Internet web infographiste flyers illustrateur graphiste webmaster PAO assistance informatique logo image invitation affiche création réalisation conception site vitrine voeux carte visite publication publicité impression plaquette charte graphique identité visuelle maintenance freelance


CSS Valide ! Valid HTML 5.0

Bienvenue

Ce site a été réalisé afin de vous faire découvrir mon métier, mes compétences, mon savoir-faire et bien entendu mes services. Vous s'y trouverez également une selection de logiciels et de liens divers et variés.



Infographiste - Web Designer

Je réalise votre logo - votre charte graphique.
Je peux également réaliser votre affiche - flyer - plaquette commerciale - catalogue publicitaire - espace pub - carte d'invitation - carte de visite - carte de fidélité - pochette cd-room ou encore votre présentation cd-room - site internet - maquette d'objet publicitaire.

Si mes services vous intéressent n'hésitez pas à me contacter.